SCP
0 -0 -0 -0 -0 -0 -0 -0 -0 -0 -0 -1 -1 -1 -0 -0 -0 -0 -0 -0 -0 -0 -0 -0 -0 -0 -0 -0 0 0 0 0 0 0 0 0 0 0 0 0 0 0 0
-0 -0 -1 -1 -0 -0 -0 -0 -0 -0 -1 -1 -1 -1 -1 -0 -0 -0 -0 -0 -0 -0 -0 -0 -0 -0 -0 0 0 0 0 0 0 0 0 0 0 0 0 0 0 0 0
-1 -1 -1 -1 -1 -0 -0 -0 -0 -0 -0 -1 -1 -1 -0 -0 -0 -0 -0 -0 -0 -0 -0 -0 -0 -0 0 0 0 0 0 0 0 0 0 0 0 0 0 0 0 0 0
-1 -0 -0 -1 -1 -1 -0 -0 -0 -0 -0 -0 -0 -0 -0 -0 -0 -0 -0 -0 -0 -0 -0 -0 -0 0 0 0 0 0 0 0 0 0 0 0 0 0 0 0 0 0 0
-0 -0 -0 -1 -1 -1 -0 -0 -0 -0 -0 -0 -0 -0 -0 -0 -0 -0 -0 -0 -0 -0 -0 0 0 0 0 0 0 0 0 0 0 0 0 0 0 0 0 0 0 0 0
0 0 -0 -0 -0 -0 -0 -0 -0 -0 -0 -0 -0 -0 -0 -0 -0 -0 -0 -0 -0 -0 -0 0 0 0 0 0 0 0 0 0 0 0 0 0 0 0 0 0 0 0 0
0 0 0 -0 -0 -0 -0 -0 -0 -0 -0 -0 -0 -0 -0 -0 -0 -0 -0 -0 0 0 0 0 0 0 0 0 0 0 0 0 0 0 0 0 0 0 0 0 0 0 0
0 0 0 0 0 0 0 -0 -0 -0 -0 -0 -0 -0 -0 -0 -0 -0 -0 0 0 0 0 0 0 -0 -0 0 0 0 0 0 0 0 0 0 0 0 0 0 0 0 0
0 1 1 0 0 0 0 0 0 0 0 0 0 0 0 -0 0 0 0 0 0 0 0 0 0 0 0 0 0 0 0 0 0 -0 -0 0 0 0 0 0 0 0 0
0 1 1 1 0 0 0 0 0 0 0 0 0 0 0 0 0 0 0 0 0 0 0 0 0 0 0 0 0 0 0 0 -0 -0 -0 0 0 0 0 0 0 0 0
0 1 1 1 1 0 0 0 0 0 0 0 1 0 0 0 0 0 0 0 0 0 0 0 0 0 0 0 0 0 0 0 0 -0 0 0 0 0 0 0 0 0 0
0 1 1 1 1 1 1 1 1 1 1 1 1 1 0 0 0 0 0 0 0 0 0 0 0 0 0 0 0 0 0 0 0 0 0 -0 0 0 0 0 0 0 0
0 1 1 1 1 1 1 1 1 1 1 0 0 0 0 0 0 0 0 0 1 1 1 1 0 0 0 0 0 0 0 0 0 0 0 0 0 0 0 0 0 0 0
0 0 1 1 1 1 1 1 1 1 0 1 0 0 0 0 0 0 0 0 0 1 1 0 0 0 0 0 0 0 0 0 0 0 0 0 0 0 0 0 0 0 0
0 0 1 1 1 1 1 1 1 1 1 1 0 0 0 0 0 0 0 0 0 0 0 0 0 0 0 0 0 0 0 0 0 0 0 0 0 0 1 1 0 0 0
0 0 0 1 1 1 1 1 1 1 1 1 1 0 0 0 0 0 0 0 0 0 0 0 0 0 0 0 0 0 0 0 0 0 0 0 0 0 1 1 1 0 0
0 0 0 0 0 0 1 1 1 1 1 1 1 1 1 1 0 0 0 0 0 0 0 0 0 0 0 0 0 0 0 0 0 0 0 0 0 0 1 1 1 1 1
0 0 0 0 0 0 0 0 0 0 0 0 0 0 0 0 0 0 0 0 0 0 0 0 0 0 0 0 0 0 0 0 0 0 0 0 0 0 1 1 1 1 1
0 0 0 0 0 0 0 0 0 0 0 0 1 0 0 0 0 0 0 0 0 0 0 0 0 0 0 0 0 0 0 0 0 0 0 0 0 0 1 1 1 2 2
0 0 0 0 0 0 0 0 0 0 0 0 0 0 0 0 0 0 0 0 0 0 0 0 0 1 1 1 0 0 0 0 0 0 0 0 0 1 1 1 2 3 2
0 0 0 0 0 0 0 0 0 0 0 0 0 0 -0 -0 -0 -0 -0 0 0 0 0 1 1 1 1 1 0 0 0 0 0 0 0 0 1 1 1 1 2 3 4
0 0 0 0 0 0 0 0 0 0 0 0 -0 -0 -0 -0 -0 -0 -0 0 0 0 1 1 1 1 1 1 1 0 0 0 0 0 0 1 1 1 1 1 1 2 3
0 0 0 0 0 0 0 0 0 0 0 0 0 0 0 0 0 0 0 0 0 0 0 1 1 1 1 0 0 1 0 0 0 0 1 2 3 3 2 1 1 1 0
0 0 0 0 0 0 0 0 0 0 0 0 0 0 0 0 0 0 0 0 0 0 0 0 1 1 1 1 0 0 0 0 0 0 0 0 1 1 1 0 0 0 0
0 0 0 0 0 0 0 0 0 0 0 0 0 0 0 0 0 0 0 0 0 0 0 0 1 1 1 1 1 0 0 0 0 0 0 0 0 0 0 0 0 0 0
0 0 0 0 0 0 0 0 0 0 0 0 0 0 0 0 0 0 0 0 0 0 0 0 0 1 1 0 1 1 1 1 1 1 0 0 0 0 0 0 0 0 0
Wind_Speed_500mb
39 43 42 37 33 27 24 21 23 26 31 30 27 25 24 23 25 27 28 32 35 35 31 30 33 31 30 25 21 25 25 27 27 28 26 26 25 23 21 19 17 16 16
30 46 44 39 33 28 24 22 24 26 31 31 29 27 25 24 24 25 28 32 34 32 27 28 30 29 26 22 20 25 27 27 26 26 25 23 21 19 18 15 13 14 17
35 44 44 41 34 29 25 22 23 25 31 31 30 29 27 26 25 26 29 33 32 29 26 26 25 24 22 21 23 27 28 27 25 23 20 18 16 14 13 12 12 15 18
38 44 43 40 34 29 25 22 22 23 30 30 28 27 27 27 27 27 30 32 29 26 22 24 25 24 23 23 26 28 27 26 23 19 15 11 10 9 9 11 11 14 16
37 42 41 40 35 30 26 23 22 22 28 28 27 26 26 26 26 27 29 29 26 23 21 23 24 22 23 26 28 27 27 25 23 15 13 7 3 4 5 8 11 16 14
34 35 35 36 34 30 27 25 24 23 25 25 24 26 26 27 26 26 28 27 25 23 21 20 20 21 23 26 28 28 27 26 21 16 12 8 6 3 5 8 11 15 13
23 31 31 32 32 30 28 26 25 25 23 24 23 24 26 27 26 26 27 26 25 23 22 20 19 21 23 25 27 29 29 25 20 16 9 10 11 8 8 10 13 16 12
21 30 31 33 33 31 28 27 25 24 24 22 23 23 25 26 26 26 25 25 24 23 22 21 20 20 23 26 28 30 30 27 24 18 14 15 14 11 11 12 14 16 12
19 25 31 34 34 33 31 28 27 25 24 23 22 21 23 25 26 26 25 24 24 23 22 22 21 22 25 29 32 34 34 33 29 22 15 14 15 15 15 17 16 18 14
23 23 31 34 35 36 35 33 30 28 25 24 22 22 21 24 26 27 27 25 25 24 24 23 24 24 26 31 35 38 39 38 35 29 22 17 16 20 21 19 21 19 16
23 24 27 33 36 35 35 34 33 32 28 26 25 24 23 24 25 27 29 29 29 28 26 26 27 28 29 32 36 39 42 43 41 37 33 28 28 26 28 24 24 21 19
11 16 27 33 35 37 37 34 35 35 34 31 29 27 26 25 26 27 29 32 34 34 34 32 31 32 32 33 35 40 45 46 46 44 42 39 35 32 32 28 27 25 21
4 9 15 31 38 38 36 38 32 36 37 33 31 30 28 27 27 28 31 35 38 39 40 40 40 39 38 37 37 40 44 48 49 50 47 45 43 39 34 32 29 29 26
5 6 13 13 35 39 39 34 35 33 30 29 31 31 30 29 29 32 35 38 41 42 44 45 47 46 46 44 43 43 44 49 51 53 53 51 50 47 39 38 34 33 32
18 16 12 16 15 29 29 27 23 26 23 23 22 24 29 30 31 33 39 43 44 47 49 50 51 51 52 53 52 50 49 49 51 54 55 55 55 53 47 44 42 38 38
12 13 7 15 18 20 20 15 13 16 15 14 17 21 24 27 32 35 39 43 45 47 51 54 56 57 55 57 57 57 56 55 54 56 55 56 59 58 53 49 50 46 44
16 10 13 10 10 13 13 10 10 11 11 14 15 18 21 25 28 31 34 39 49 51 48 53 58 60 60 58 59 56 56 62 62 59 56 55 56 57 53 54 56 54 51
27 21 16 14 15 17 17 17 15 14 15 14 17 20 25 28 28 27 32 37 41 44 51 60 59 59 62 62 61 59 57 56 64 64 62 61 59 56 56 58 58 61 59
34 31 27 20 17 20 24 23 21 22 20 19 19 19 18 20 25 33 38 41 44 46 51 48 52 68 65 61 63 64 61 58 55 60 65 69 67 62 59 58 62 66 65
37 32 31 27 30 28 30 29 26 22 16 8 6 15 24 32 37 42 47 52 53 56 57 55 60 57 66 70 66 67 64 62 59 57 60 62 65 66 63 60 61 69 71
26 27 18 29 31 24 23 17 13 7 2 7 16 26 34 38 43 48 52 49 51 62 64 62 64 70 69 67 69 70 75 71 69 64 63 62 64 68 66 64 65 67 73
30 25 24 24 24 21 18 16 8 4 11 19 28 36 43 49 50 53 54 54 52 51 55 60 63 63 69 65 68 69 65 68 75 70 71 71 69 67 68 69 74 80 78
38 35 32 28 23 18 15 8 3 7 15 21 28 42 49 52 55 52 53 52 51 49 52 55 55 55 59 62 62 62 29 34 47 53 70 76 76 72 67 73 77 83 85
29 24 21 17 11 5 3 8 14 17 22 28 34 42 46 46 49 51 55 55 52 50 54 51 49 51 48 56 62 66 69 74 38 23 38 48 64 72 72 74 82 80 81
15 8 4 2 6 9 13 17 20 25 29 36 40 44 47 50 50 54 55 54 56 52 54 48 43 50 56 53 52 57 59 58 65 75 52 66 71 57 61 73 81 80 77
7 4 6 9 12 15 20 28 36 44 48 50 49 48 52 56 56 51 48 53 54 52 50 55 51 47 46 50 54 56 57 59 60 69 67 75 76 69 72 82 80 75 76
Wind_Direction_500mb
184 179 176 175 177 184 187 182 176 176 178 180 182 175 167 159 153 150 150 154 154 152 144 141 151 149 154 148 133 130 129 126 123 118 110 99 90 84 76 69 60 48 33
187 181 179 179 179 184 189 187 180 182 182 184 185 180 173 166 161 157 156 158 158 156 151 148 150 152 154 148 142 139 138 135 129 123 112 102 89 82 73 68 55 32 17
185 181 181 183 182 184 190 190 184 183 183 183 183 181 177 172 169 165 164 162 159 156 156 158 160 161 160 155 150 146 145 142 136 134 118 103 94 79 64 58 44 18 2
197 186 182 184 184 186 190 193 187 185 181 182 183 182 179 175 173 170 169 166 164 163 159 163 165 163 165 161 157 155 154 152 150 148 136 113 97 78 51 37 27 10 359
182 184 183 185 186 189 191 194 191 185 183 181 182 183 182 179 176 176 174 174 175 174 169 168 173 170 171 168 166 165 162 163 170 169 175 150 127 63 29 11 13 5 358
179 184 185 187 189 193 197 197 195 190 186 184 184 184 184 183 183 183 183 184 188 189 184 179 185 182 183 179 178 179 174 175 181 187 187 199 214 241 320 337 354 358 353
176 191 189 191 196 200 203 203 201 197 190 189 189 190 190 190 191 192 193 196 200 202 198 194 194 196 198 192 189 189 187 190 194 198 217 237 232 245 278 305 339 348 345
191 196 194 195 201 206 210 209 208 205 200 197 196 196 199 200 201 202 203 207 209 208 204 205 203 206 209 208 202 201 202 205 210 217 237 232 220 245 267 289 326 334 326
197 210 206 204 204 207 214 217 215 213 210 208 206 206 207 210 211 212 213 215 216 215 216 216 213 213 215 217 215 212 214 217 221 229 240 234 239 259 271 288 310 316 309
208 215 219 217 214 212 213 215 218 218 217 218 218 217 218 221 223 225 226 226 226 228 231 229 225 223 223 224 224 223 222 223 228 235 240 251 255 267 268 276 291 304 295
224 238 236 226 225 225 223 220 219 218 219 221 223 225 227 232 235 236 239 240 242 242 242 242 237 234 232 231 230 231 231 231 233 238 243 249 261 279 265 264 278 292 291
209 238 246 243 233 230 227 228 227 225 223 224 227 231 236 239 245 249 252 252 253 254 256 255 251 248 244 240 238 238 240 238 239 240 244 249 259 267 269 257 270 279 282
316 298 265 237 240 237 232 231 234 235 233 234 236 240 247 253 258 261 261 261 263 262 261 260 259 258 257 254 250 248 247 247 245 245 245 248 251 257 262 251 262 274 274
231 269 288 262 235 240 240 243 239 240 245 259 259 264 265 268 274 278 278 280 274 269 267 267 265 263 262 260 260 257 254 252 251 250 249 247 246 249 258 248 253 264 269
305 296 268 245 226 236 251 252 244 243 259 271 275 275 273 280 288 293 293 288 283 278 274 271 271 269 267 265 264 264 262 259 256 254 252 250 249 250 254 251 250 256 265
298 291 264 232 233 226 235 236 249 244 247 262 266 278 282 288 294 296 294 292 289 283 279 277 276 276 271 267 264 263 262 261 258 255 254 249 248 249 251 254 247 251 258
280 265 284 218 185 208 225 231 243 224 256 282 288 288 295 307 315 312 310 307 297 291 286 285 281 279 275 270 266 265 267 262 258 254 252 249 247 246 250 254 251 249 254
257 240 229 212 196 189 198 210 223 240 252 262 274 282 290 289 290 294 298 304 309 300 288 291 287 283 278 275 273 269 273 277 262 257 253 246 246 247 251 255 255 250 250
261 247 218 216 200 198 199 207 213 240 241 246 255 259 262 280 290 298 300 302 301 298 292 292 291 282 281 277 275 277 274 275 274 261 254 250 246 249 253 259 253 249 249
251 237 215 213 202 204 205 212 220 224 222 211 283 315 318 319 319 314 308 303 298 294 289 283 282 288 283 277 277 275 274 272 272 262 259 257 248 249 253 255 252 248 245
235 216 220 207 200 204 201 177 154 147 225 305 327 333 333 332 329 325 320 310 297 288 285 277 278 278 281 280 277 274 277 272 271 266 260 258 252 251 252 251 251 253 246
101 112 125 133 125 131 144 153 173 266 318 327 330 332 328 324 324 324 322 319 308 286 281 272 272 279 277 276 274 274 278 280 270 262 259 253 253 253 249 251 249 252 249
105 112 120 124 128 121 112 119 203 288 301 305 314 313 310 314 318 322 327 325 313 294 284 276 273 280 279 280 277 263 270 270 287 274 260 254 253 254 255 254 254 254 250
107 111 111 105 98 90 29 325 330 330 330 326 321 314 308 303 304 307 315 320 323 304 291 286 270 269 285 280 278 270 272 271 266 269 271 262 260 256 258 258 258 258 256
107 108 96 24 349 343 339 339 338 334 327 316 309 300 294 294 294 298 302 306 311 316 297 294 283 269 273 277 277 278 272 271 263 257 258 256 260 266 264 259 257 257 256
79 30 337 322 319 321 323 323 323 324 324 321 314 303 292 289 290 287 290 294 297 302 300 290 286 281 277 275 277 277 271 267 270 258 256 254 253 260 266 259 253 252 255
Wind_Speed_850mb
39 43 42 37 33 27 24 21 23 26 31 30 27 25 24 23 25 27 28 32 35 35 31 30 33 31 30 25 21 25 25 27 27 28 26 26 25 23 21 19 17 16 16
30 46 44 39 33 28 24 22 24 26 31 31 29 27 25 24 24 25 28 32 34 32 27 28 30 29 26 22 20 25 27 27 26 26 25 23 21 19 18 15 13 14 17
35 44 44 41 34 29 25 22 23 25 31 31 30 29 27 26 25 26 29 33 32 29 26 26 25 24 22 21 23 27 28 27 25 23 20 18 16 14 13 12 12 15 18
38 44 43 40 34 29 25 22 22 23 30 30 28 27 27 27 27 27 30 32 29 26 22 24 25 24 23 23 26 28 27 26 23 19 15 11 10 9 9 11 11 14 16
37 42 41 40 35 30 26 23 22 22 28 28 27 26 26 26 26 27 29 29 26 23 21 23 24 22 23 26 28 27 27 25 23 15 13 7 3 4 5 8 11 16 14
34 35 35 36 34 30 27 25 24 23 25 25 24 26 26 27 26 26 28 27 25 23 21 20 20 21 23 26 28 28 27 26 21 16 12 8 6 3 5 8 11 15 13
23 31 31 32 32 30 28 26 25 25 23 24 23 24 26 27 26 26 27 26 25 23 22 20 19 21 23 25 27 29 29 25 20 16 9 10 11 8 8 10 13 16 12
21 30 31 33 33 31 28 27 25 24 24 22 23 23 25 26 26 26 25 25 24 23 22 21 20 20 23 26 28 30 30 27 24 18 14 15 14 11 11 12 14 16 12
19 25 31 34 34 33 31 28 27 25 24 23 22 21 23 25 26 26 25 24 24 23 22 22 21 22 25 29 32 34 34 33 29 22 15 14 15 15 15 17 16 18 14
23 23 31 34 35 36 35 33 30 28 25 24 22 22 21 24 26 27 27 25 25 24 24 23 24 24 26 31 35 38 39 38 35 29 22 17 16 20 21 19 21 19 16
23 24 27 33 36 35 35 34 33 32 28 26 25 24 23 24 25 27 29 29 29 28 26 26 27 28 29 32 36 39 42 43 41 37 33 28 28 26 28 24 24 21 19
11 16 27 33 35 37 37 34 35 35 34 31 29 27 26 25 26 27 29 32 34 34 34 32 31 32 32 33 35 40 45 46 46 44 42 39 35 32 32 28 27 25 21
4 9 15 31 38 38 36 38 32 36 37 33 31 30 28 27 27 28 31 35 38 39 40 40 40 39 38 37 37 40 44 48 49 50 47 45 43 39 34 32 29 29 26
5 6 13 13 35 39 39 34 35 33 30 29 31 31 30 29 29 32 35 38 41 42 44 45 47 46 46 44 43 43 44 49 51 53 53 51 50 47 39 38 34 33 32
18 16 12 16 15 29 29 27 23 26 23 23 22 24 29 30 31 33 39 43 44 47 49 50 51 51 52 53 52 50 49 49 51 54 55 55 55 53 47 44 42 38 38
12 13 7 15 18 20 20 15 13 16 15 14 17 21 24 27 32 35 39 43 45 47 51 54 56 57 55 57 57 57 56 55 54 56 55 56 59 58 53 49 50 46 44
16 10 13 10 10 13 13 10 10 11 11 14 15 18 21 25 28 31 34 39 49 51 48 53 58 60 60 58 59 56 56 62 62 59 56 55 56 57 53 54 56 54 51
27 21 16 14 15 17 17 17 15 14 15 14 17 20 25 28 28 27 32 37 41 44 51 60 59 59 62 62 61 59 57 56 64 64 62 61 59 56 56 58 58 61 59
34 31 27 20 17 20 24 23 21 22 20 19 19 19 18 20 25 33 38 41 44 46 51 48 52 68 65 61 63 64 61 58 55 60 65 69 67 62 59 58 62 66 65
37 32 31 27 30 28 30 29 26 22 16 8 6 15 24 32 37 42 47 52 53 56 57 55 60 57 66 70 66 67 64 62 59 57 60 62 65 66 63 60 61 69 71
26 27 18 29 31 24 23 17 13 7 2 7 16 26 34 38 43 48 52 49 51 62 64 62 64 70 69 67 69 70 75 71 69 64 63 62 64 68 66 64 65 67 73
30 25 24 24 24 21 18 16 8 4 11 19 28 36 43 49 50 53 54 54 52 51 55 60 63 63 69 65 68 69 65 68 75 70 71 71 69 67 68 69 74 80 78
38 35 32 28 23 18 15 8 3 7 15 21 28 42 49 52 55 52 53 52 51 49 52 55 55 55 59 62 62 62 29 34 47 53 70 76 76 72 67 73 77 83 85
29 24 21 17 11 5 3 8 14 17 22 28 34 42 46 46 49 51 55 55 52 50 54 51 49 51 48 56 62 66 69 74 38 23 38 48 64 72 72 74 82 80 81
15 8 4 2 6 9 13 17 20 25 29 36 40 44 47 50 50 54 55 54 56 52 54 48 43 50 56 53 52 57 59 58 65 75 52 66 71 57 61 73 81 80 77
7 4 6 9 12 15 20 28 36 44 48 50 49 48 52 56 56 51 48 53 54 52 50 55 51 47 46 50 54 56 57 59 60 69 67 75 76 69 72 82 80 75 76
Wind_Direction_850mb
184 179 176 175 177 184 187 182 176 176 178 180 182 175 167 159 153 150 150 154 154 152 144 141 151 149 154 148 133 130 129 126 123 118 110 99 90 84 76 69 60 48 33
187 181 179 179 179 184 189 187 180 182 182 184 185 180 173 166 161 157 156 158 158 156 151 148 150 152 154 148 142 139 138 135 129 123 112 102 89 82 73 68 55 32 17
185 181 181 183 182 184 190 190 184 183 183 183 183 181 177 172 169 165 164 162 159 156 156 158 160 161 160 155 150 146 145 142 136 134 118 103 94 79 64 58 44 18 2
197 186 182 184 184 186 190 193 187 185 181 182 183 182 179 175 173 170 169 166 164 163 159 163 165 163 165 161 157 155 154 152 150 148 136 113 97 78 51 37 27 10 359
182 184 183 185 186 189 191 194 191 185 183 181 182 183 182 179 176 176 174 174 175 174 169 168 173 170 171 168 166 165 162 163 170 169 175 150 127 63 29 11 13 5 358
179 184 185 187 189 193 197 197 195 190 186 184 184 184 184 183 183 183 183 184 188 189 184 179 185 182 183 179 178 179 174 175 181 187 187 199 214 241 320 337 354 358 353
176 191 189 191 196 200 203 203 201 197 190 189 189 190 190 190 191 192 193 196 200 202 198 194 194 196 198 192 189 189 187 190 194 198 217 237 232 245 278 305 339 348 345
191 196 194 195 201 206 210 209 208 205 200 197 196 196 199 200 201 202 203 207 209 208 204 205 203 206 209 208 202 201 202 205 210 217 237 232 220 245 267 289 326 334 326
197 210 206 204 204 207 214 217 215 213 210 208 206 206 207 210 211 212 213 215 216 215 216 216 213 213 215 217 215 212 214 217 221 229 240 234 239 259 271 288 310 316 309
208 215 219 217 214 212 213 215 218 218 217 218 218 217 218 221 223 225 226 226 226 228 231 229 225 223 223 224 224 223 222 223 228 235 240 251 255 267 268 276 291 304 295
224 238 236 226 225 225 223 220 219 218 219 221 223 225 227 232 235 236 239 240 242 242 242 242 237 234 232 231 230 231 231 231 233 238 243 249 261 279 265 264 278 292 291
209 238 246 243 233 230 227 228 227 225 223 224 227 231 236 239 245 249 252 252 253 254 256 255 251 248 244 240 238 238 240 238 239 240 244 249 259 267 269 257 270 279 282
316 298 265 237 240 237 232 231 234 235 233 234 236 240 247 253 258 261 261 261 263 262 261 260 259 258 257 254 250 248 247 247 245 245 245 248 251 257 262 251 262 274 274
231 269 288 262 235 240 240 243 239 240 245 259 259 264 265 268 274 278 278 280 274 269 267 267 265 263 262 260 260 257 254 252 251 250 249 247 246 249 258 248 253 264 269
305 296 268 245 226 236 251 252 244 243 259 271 275 275 273 280 288 293 293 288 283 278 274 271 271 269 267 265 264 264 262 259 256 254 252 250 249 250 254 251 250 256 265
298 291 264 232 233 226 235 236 249 244 247 262 266 278 282 288 294 296 294 292 289 283 279 277 276 276 271 267 264 263 262 261 258 255 254 249 248 249 251 254 247 251 258
280 265 284 218 185 208 225 231 243 224 256 282 288 288 295 307 315 312 310 307 297 291 286 285 281 279 275 270 266 265 267 262 258 254 252 249 247 246 250 254 251 249 254
257 240 229 212 196 189 198 210 223 240 252 262 274 282 290 289 290 294 298 304 309 300 288 291 287 283 278 275 273 269 273 277 262 257 253 246 246 247 251 255 255 250 250
261 247 218 216 200 198 199 207 213 240 241 246 255 259 262 280 290 298 300 302 301 298 292 292 291 282 281 277 275 277 274 275 274 261 254 250 246 249 253 259 253 249 249
251 237 215 213 202 204 205 212 220 224 222 211 283 315 318 319 319 314 308 303 298 294 289 283 282 288 283 277 277 275 274 272 272 262 259 257 248 249 253 255 252 248 245
235 216 220 207 200 204 201 177 154 147 225 305 327 333 333 332 329 325 320 310 297 288 285 277 278 278 281 280 277 274 277 272 271 266 260 258 252 251 252 251 251 253 246
101 112 125 133 125 131 144 153 173 266 318 327 330 332 328 324 324 324 322 319 308 286 281 272 272 279 277 276 274 274 278 280 270 262 259 253 253 253 249 251 249 252 249
105 112 120 124 128 121 112 119 203 288 301 305 314 313 310 314 318 322 327 325 313 294 284 276 273 280 279 280 277 263 270 270 287 274 260 254 253 254 255 254 254 254 250
107 111 111 105 98 90 29 325 330 330 330 326 321 314 308 303 304 307 315 320 323 304 291 286 270 269 285 280 278 270 272 271 266 269 271 262 260 256 258 258 258 258 256
107 108 96 24 349 343 339 339 338 334 327 316 309 300 294 294 294 298 302 306 311 316 297 294 283 269 273 277 277 278 272 271 263 257 258 256 260 266 264 259 257 257 256
79 30 337 322 319 321 323 323 323 324 324 321 314 303 292 289 290 287 290 294 297 302 300 290 286 281 277 275 277 277 271 267 270 258 256 254 253 260 266 259 253 252 255